This is the latest recevied weather packets stored in our database for station/object DH0DM-13. If no packets are shown the sender has not sent any weather packets the latest 10 day(s).
| Time | Temp. | Humidity | Pressure | Rain* | Wind** | Luminosity | Snow |
|---|---|---|---|---|---|---|---|
| 1777373892 | 15° C | 34% | 997.2 hPa | 0 mm | 1.34 m/s, 311° | - | - |
| 1777373292 | 14.44° C | 37% | 997.3 hPa | 0 mm | 2.24 m/s, 212° | - | - |
| 1777372691 | 14.44° C | 35% | 997.3 hPa | 0 mm | 2.24 m/s, 282° | - | - |
| 1777372090 | 13.89° C | 37% | 997.4 hPa | 0 mm | 2.24 m/s, 285° | - | - |
| 1777371489 | 14.44° C | 37% | 997.5 hPa | 0 mm | 3.58 m/s, 89° | - | - |
| 1777370888 | 14.44° C | 37% | 997.3 hPa | 0 mm | 5.81 m/s, 15° | - | - |
| 1777370287 | 13.89° C | 39% | 997.3 hPa | 0 mm | 4.92 m/s, 351° | - | - |
| 1777369686 | 13.33° C | 39% | 997.3 hPa | 0 mm | 3.58 m/s, 185° | - | - |
| 1777369085 | 13.33° C | 39% | 997.3 hPa | 0 mm | 2.24 m/s, 294° | - | - |
| 1777368485 | 12.78° C | 39% | 997.5 hPa | 0 mm | 2.68 m/s, 334° | - | - |
| 1777367884 | 13.33° C | 40% | 997.5 hPa | 0 mm | 2.68 m/s, 350° | - | - |
| 1777367283 | 12.22° C | 40% | 997.5 hPa | 0 mm | 4.47 m/s, 252° | - | - |
| 1777366682 | 12.22° C | 41% | 997.5 hPa | 0 mm | 4.92 m/s, 356° | - | - |
| 1777366081 | 11.67° C | 43% | 997.4 hPa | 0 mm | 3.13 m/s, 333° | - | - |
| 1777365480 | 11.11° C | 45% | 997.3 hPa | 0 mm | 1.34 m/s, 90° | - | - |
| 1777364881 | 11.11° C | 45% | 997.3 hPa | 0 mm | 0.45 m/s, 38° | - | - |
| 1777364278 | 10° C | 47% | 997.4 hPa | 0 mm | 1.34 m/s, 109° | - | - |
| 1777363678 | 10° C | 47% | 997.2 hPa | 0 mm | 11.18 m/s, 64° | - | - |
| 1777363077 | 9.44° C | 47% | 997.4 hPa | 0 mm | 8.94 m/s, 57° | - | - |
| 1777362476 | 9.44° C | 49% | 997.3 hPa | 0 mm | 4.92 m/s, 33° | - | - |
| 1777361875 | 8.89° C | 49% | 997.2 hPa | 0 mm | 5.81 m/s, 52° | - | - |
| 1777361274 | 9.44° C | 47% | 997.1 hPa | 0 mm | 4.92 m/s, 38° | - | - |
| 1777360673 | 9.44° C | 48% | 997.1 hPa | 0 mm | 4.47 m/s, 164° | - | - |
| 1777360072 | 8.89° C | 50% | 997.2 hPa | 0 mm | 4.02 m/s, 52° | - | - |
| 1777359471 | 8.33° C | 51% | 997 hPa | 0 mm | 5.36 m/s, 74° | - | - |
* Rain since midnight (hover to see other rain measurements)
** Current wind speed in m/s (hover to see current wind gust speed)